Time,TemperatureF,DewpointF,PressureIn,WindDirection,WindDirectionDegrees,WindSpeedMPH,WindSpeedGustMPH,Humidity,HourlyPrecipIn,Conditions,Clouds,dailyrainin,SoftwareType,DateUTC
2013-09-19 00:01:00,50.8,47.1,30.17,NNE,27,0.0,1.0,87,0.00,,CLR,0.00,VWS V14.01,2013-09-19 04:01:00,
2013-09-19 00:06:00,50.6,47.2,30.17,NNE,14,1.0,3.0,88,0.00,,CLR,0.00,VWS V14.01,2013-09-19 04:06:00,
2013-09-19 00:08:00,50.6,47.2,30.17,ENE,71,1.0,3.0,88,0.00,,CLR,0.00,VWS V14.01,2013-09-19 04:08:00,
2013-09-19 00:13:00,50.4,47.0,30.17,NNE,27,3.0,4.0,88,0.00,,CLR,0.00,VWS V14.01,2013-09-19 04:13:00,
2013-09-19 00:18:00,50.4,47.3,30.17,NE,42,1.0,5.0,89,0.00,,CLR,0.00,VWS V14.01,2013-09-19 04:18:00,
2013-09-19 00:23:00,50.4,47.3,30.17,NE,39,0.0,5.0,89,0.00,,CLR,0.00,VWS V14.01,2013-09-19 04:23:00,
2013-09-19 00:28:00,50.2,47.1,30.17,NE,47,0.0,5.0,89,0.00,,CLR,0.00,VWS V14.01,2013-09-19 04:28:00,
2013-09-19 00:33:00,50.0,46.9,30.18,NNE,32,0.0,1.0,89,0.00,,CLR,0.00,VWS V14.01,2013-09-19 04:33:00,
2013-09-19 00:38:00,49.9,46.8,30.18,NE,34,0.0,1.0,89,0.00,,CLR,0.00,VWS V14.01,2013-09-19 04:38:00,
2013-09-19 00:43:00,49.6,46.5,30.18,NE,34,0.0,1.0,89,0.00,,CLR,0.00,VWS V14.01,2013-09-19 04:43:00,
2013-09-19 00:48:00,49.4,46.6,30.18,NE,34,1.0,1.0,90,0.00,,CLR,0.00,VWS V14.01,2013-09-19 04:48:00,
2013-09-19 00:53:00,49.3,46.5,30.18,NNE,33,1.0,4.0,90,0.00,,CLR,0.00,VWS V14.01,2013-09-19 04:53:00,
2013-09-19 00:58:00,49.2,46.4,30.17,NE,36,1.0,4.0,90,0.00,,CLR,0.00,VWS V14.01,2013-09-19 04:58:00,
2013-09-19 01:03:00,49.1,46.6,30.17,NE,46,0.0,2.0,91,0.00,,CLR,0.00,VWS V14.01,2013-09-19 05:03:00,
2013-09-19 01:08:00,48.9,46.4,30.17,NE,44,1.0,3.0,91,0.00,,CLR,0.00,VWS V14.01,2013-09-19 05:08:00,
2013-09-19 01:13:00,48.9,46.4,30.17,NNE,33,2.0,3.0,91,0.00,,CLR,0.00,VWS V14.01,2013-09-19 05:13:00,
2013-09-19 01:18:00,48.8,46.3,30.18,NE,51,1.0,4.0,91,0.00,,CLR,0.00,VWS V14.01,2013-09-19 05:18:00,
2013-09-19 01:23:00,48.6,46.1,30.18,NE,39,1.0,4.0,91,0.00,,CLR,0.00,VWS V14.01,2013-09-19 05:23:00,
2013-09-19 01:28:00,48.5,46.0,30.18,NNE,29,2.0,4.0,91,0.00,,CLR,0.00,VWS V14.01,2013-09-19 05:28:00,
2013-09-19 01:33:00,48.4,45.9,30.18,North,11,0.0,2.0,91,0.00,,CLR,0.00,VWS V14.01,2013-09-19 05:33:00,
2013-09-19 01:38:00,48.2,46.0,30.18,NNE,18,2.0,3.0,92,0.00,,CLR,0.00,VWS V14.01,2013-09-19 05:38:00,
2013-09-19 01:43:00,48.1,45.9,30.18,NE,34,2.0,3.0,92,0.00,,CLR,0.00,VWS V14.01,2013-09-19 05:43:00,
2013-09-19 01:48:00,47.9,45.7,30.18,NNE,14,0.0,3.0,92,0.00,,CLR,0.00,VWS V14.01,2013-09-19 05:48:00,
2013-09-19 01:53:00,47.7,45.5,30.18,North,349,0.0,3.0,92,0.00,,CLR,0.00,VWS V14.01,2013-09-19 05:53:00,
2013-09-19 01:58:00,47.5,45.3,30.17,North,350,0.0,3.0,92,0.00,,CLR,0.00,VWS V14.01,2013-09-19 05:58:00,
2013-09-19 02:03:00,47.4,45.2,30.18,NE,39,1.0,2.0,92,0.00,,CLR,0.00,VWS V14.01,2013-09-19 06:03:00,
2013-09-19 02:07:00,47.3,45.1,30.17,North,6,0.0,2.0,92,0.00,,CLR,0.00,VWS V14.01,2013-09-19 06:07:00,
2013-09-19 02:12:00,47.1,45.2,30.17,North,5,1.0,2.0,93,0.00,,CLR,0.00,VWS V14.01,2013-09-19 06:12:00,
2013-09-19 02:17:00,47.0,45.1,30.17,North,11,0.0,2.0,93,0.00,,CLR,0.00,VWS V14.01,2013-09-19 06:17:00,
2013-09-19 02:22:00,46.9,45.0,30.18,NNE,14,0.0,2.0,93,0.00,,CLR,0.00,VWS V14.01,2013-09-19 06:22:00,
2013-09-19 02:27:00,46.6,44.7,30.17,NNE,15,0.0,2.0,93,0.00,,CLR,0.00,VWS V14.01,2013-09-19 06:27:00,
2013-09-19 02:32:00,46.5,44.6,30.18,NNE,15,0.0,0.0,93,0.00,,CLR,0.00,VWS V14.01,2013-09-19 06:32:00,
2013-09-19 02:37:00,46.4,44.8,30.18,NNE,14,0.0,0.0,94,0.00,,CLR,0.00,VWS V14.01,2013-09-19 06:37:00,
2013-09-19 02:42:00,46.4,44.8,30.18,NNE,18,1.0,2.0,94,0.00,,CLR,0.00,VWS V14.01,2013-09-19 06:42:00,
2013-09-19 02:47:00,46.3,44.7,30.18,NNE,23,1.0,2.0,94,0.00,,CLR,0.00,VWS V14.01,2013-09-19 06:47:00,
2013-09-19 02:52:00,46.3,44.7,30.18,NNE,24,1.0,2.0,94,0.00,,CLR,0.00,VWS V14.01,2013-09-19 06:52:00,
2013-09-19 02:57:00,46.2,44.6,30.18,NNE,24,0.0,2.0,94,0.00,,CLR,0.00,VWS V14.01,2013-09-19 06:57:00,
2013-09-19 03:02:00,46.1,44.5,30.18,NNE,24,0.0,1.0,94,0.00,,CLR,0.00,VWS V14.01,2013-09-19 07:02:00,
2013-09-19 03:07:00,46.0,44.4,30.17,NNE,26,0.0,1.0,94,0.00,,CLR,0.00,VWS V14.01,2013-09-19 07:07:00,
2013-09-19 03:12:00,45.9,44.3,30.17,ENE,69,0.0,1.0,94,0.00,,CLR,0.00,VWS V14.01,2013-09-19 07:12:00,
2013-09-19 03:17:00,45.8,44.2,30.17,ENE,70,0.0,1.0,94,0.00,,CLR,0.00,VWS V14.01,2013-09-19 07:17:00,
2013-09-19 03:22:00,45.5,43.9,30.17,ENE,69,0.0,1.0,94,0.00,,CLR,0.00,VWS V14.01,2013-09-19 07:22:00,
2013-09-19 03:27:00,45.3,43.7,30.17,ENE,69,0.0,1.0,94,0.00,,CLR,0.00,VWS V14.01,2013-09-19 07:27:00,
2013-09-19 03:32:00,45.1,43.8,30.17,NE,36,0.0,1.0,95,0.00,,CLR,0.00,VWS V14.01,2013-09-19 07:32:00,
2013-09-19 03:37:00,45.0,43.7,30.17,NE,36,0.0,1.0,95,0.00,,CLR,0.00,VWS V14.01,2013-09-19 07:37:00,
2013-09-19 03:42:00,45.1,43.8,30.17,NE,39,1.0,4.0,95,0.00,,CLR,0.00,VWS V14.01,2013-09-19 07:42:00,
2013-09-19 03:47:00,45.3,44.0,30.17,NNE,18,2.0,4.0,95,0.00,,CLR,0.00,VWS V14.01,2013-09-19 07:47:00,
2013-09-19 03:52:00,45.2,43.9,30.17,NNE,21,1.0,4.0,95,0.00,,CLR,0.00,VWS V14.01,2013-09-19 07:52:00,
2013-09-19 03:57:00,45.0,43.4,30.17,NNE,20,0.0,4.0,94,0.00,,CLR,0.00,VWS V14.01,2013-09-19 07:57:00,
2013-09-19 04:02:00,44.8,43.2,30.17,NNE,20,0.0,0.0,94,0.00,,CLR,0.00,VWS V14.01,2013-09-19 08:02:00,
2013-09-19 04:07:00,44.6,43.0,30.17,NNE,20,0.0,0.0,94,0.00,,CLR,0.00,VWS V14.01,2013-09-19 08:07:00,
2013-09-19 04:12:00,44.4,43.1,30.18,NNE,20,0.0,0.0,95,0.00,,CLR,0.00,VWS V14.01,2013-09-19 08:12:00,
2013-09-19 04:17:00,44.4,43.1,30.18,NNE,20,0.0,1.0,95,0.00,,CLR,0.00,VWS V14.01,2013-09-19 08:17:00,
2013-09-19 04:22:00,44.3,43.0,30.17,NNE,20,0.0,1.0,95,0.00,,CLR,0.00,VWS V14.01,2013-09-19 08:22:00,
2013-09-19 04:27:00,44.1,42.8,30.18,NNE,20,0.0,1.0,95,0.00,,CLR,0.00,VWS V14.01,2013-09-19 08:27:00,
2013-09-19 04:32:00,43.9,42.6,30.18,NNE,20,0.0,1.0,95,0.00,,CLR,0.00,VWS V14.01,2013-09-19 08:32:00,
2013-09-19 04:37:00,43.8,42.5,30.17,NNE,20,0.0,1.0,95,0.00,,CLR,0.00,VWS V14.01,2013-09-19 08:37:00,
2013-09-19 04:42:00,43.7,42.4,30.18,North,4,2.0,2.0,95,0.00,,CLR,0.00,VWS V14.01,2013-09-19 08:42:00,
2013-09-19 04:47:00,43.7,42.6,30.17,North,11,0.0,2.0,96,0.00,,CLR,0.00,VWS V14.01,2013-09-19 08:47:00,
2013-09-19 04:52:00,43.7,42.6,30.17,North,11,0.0,2.0,96,0.00,,CLR,0.00,VWS V14.01,2013-09-19 08:52:00,
2013-09-19 04:57:00,43.7,42.6,30.17,North,11,0.0,2.0,96,0.00,,CLR,0.00,VWS V14.01,2013-09-19 08:57:00,
2013-09-19 05:02:00,43.7,42.6,30.17,North,11,0.0,0.0,96,0.00,,CLR,0.00,VWS V14.01,2013-09-19 09:02:00,
2013-09-19 05:07:00,43.7,42.6,30.17,North,11,0.0,0.0,96,0.00,,CLR,0.00,VWS V14.01,2013-09-19 09:07:00,
2013-09-19 05:12:00,43.6,42.5,30.18,North,11,0.0,0.0,96,0.00,,CLR,0.00,VWS V14.01,2013-09-19 09:12:00,
2013-09-19 05:17:00,43.5,42.4,30.18,North,11,0.0,0.0,96,0.00,,CLR,0.00,VWS V14.01,2013-09-19 09:17:00,
2013-09-19 05:22:00,43.8,42.7,30.18,NNE,20,0.0,0.0,96,0.00,,CLR,0.00,VWS V14.01,2013-09-19 09:22:00,
2013-09-19 05:27:00,44.2,43.4,30.18,NNE,20,0.0,0.0,97,0.00,,CLR,0.00,VWS V14.01,2013-09-19 09:27:00,
2013-09-19 05:32:00,44.4,43.6,30.18,NNE,17,2.0,2.0,97,0.00,,CLR,0.00,VWS V14.01,2013-09-19 09:32:00,
2013-09-19 05:37:00,44.5,43.7,30.18,NNE,18,0.0,2.0,97,0.00,,CLR,0.00,VWS V14.01,2013-09-19 09:37:00,
2013-09-19 05:42:00,44.5,43.7,30.18,NNE,17,0.0,2.0,97,0.00,,CLR,0.00,VWS V14.01,2013-09-19 09:42:00,
2013-09-19 05:47:00,44.4,43.3,30.18,NNE,18,0.0,2.0,96,0.00,,CLR,0.00,VWS V14.01,2013-09-19 09:47:00,
2013-09-19 05:52:00,44.1,43.0,30.18,NNE,18,0.0,2.0,96,0.00,,CLR,0.00,VWS V14.01,2013-09-19 09:52:00,
2013-09-19 05:57:00,43.9,42.8,30.18,NNE,15,0.0,2.0,96,0.00,,CLR,0.00,VWS V14.01,2013-09-19 09:57:00,
2013-09-19 06:02:00,43.8,43.0,30.18,NNE,16,0.0,0.0,97,0.00,,CLR,0.00,VWS V14.01,2013-09-19 10:02:00,
2013-09-19 06:07:00,43.9,43.1,30.18,NNE,16,0.0,0.0,97,0.00,,CLR,0.00,VWS V14.01,2013-09-19 10:07:00,
2013-09-19 06:12:00,43.9,43.1,30.18,NNE,16,0.0,0.0,97,0.00,,CLR,0.00,VWS V14.01,2013-09-19 10:12:00,
2013-09-19 06:17:00,44.0,43.2,30.18,NNE,16,0.0,0.0,97,0.00,,CLR,0.00,VWS V14.01,2013-09-19 10:17:00,
2013-09-19 06:22:00,44.0,43.2,30.18,NNE,16,0.0,0.0,97,0.00,,CLR,0.00,VWS V14.01,2013-09-19 10:22:00,
2013-09-19 06:27:00,44.0,43.2,30.18,East,82,0.0,0.0,97,0.00,,CLR,0.00,VWS V14.01,2013-09-19 10:27:00,
2013-09-19 06:32:00,43.7,42.6,30.18,ENE,59,0.0,0.0,96,0.00,,SCT004,0.00,VWS V14.01,2013-09-19 10:32:00,
2013-09-19 06:37:00,43.5,42.4,30.18,NNE,32,2.0,3.0,96,0.00,,SCT004,0.00,VWS V14.01,2013-09-19 10:37:00,
2013-09-19 06:42:00,43.5,42.7,30.18,NNE,20,2.0,3.0,97,0.00,,SCT004,0.00,VWS V14.01,2013-09-19 10:42:00,
2013-09-19 06:47:00,43.3,42.2,30.18,NNE,20,2.0,3.0,96,0.00,,SCT004,0.00,VWS V14.01,2013-09-19 10:47:00,
2013-09-19 06:52:00,43.1,42.0,30.18,NNE,13,0.0,3.0,96,0.00,,SCT004,0.00,VWS V14.01,2013-09-19 10:52:00,
2013-09-19 06:57:00,42.9,41.8,30.18,NNE,28,0.0,3.0,96,0.00,,SCT004,0.00,VWS V14.01,2013-09-19 10:57:00,
2013-09-19 07:02:00,42.8,41.7,30.19,NNE,29,0.0,0.0,96,0.00,,FEW004,0.00,VWS V14.01,2013-09-19 11:02:00,
2013-09-19 07:07:00,42.7,41.6,30.18,NNE,29,0.0,1.0,96,0.00,,FEW004,0.00,VWS V14.01,2013-09-19 11:07:00,
2013-09-19 07:12:00,42.7,41.6,30.18,NNE,29,0.0,1.0,96,0.00,,FEW004,0.00,VWS V14.01,2013-09-19 11:12:00,
2013-09-19 07:17:00,42.7,41.6,30.18,NNE,29,0.0,1.0,96,0.00,,FEW004,0.00,VWS V14.01,2013-09-19 11:17:00,
2013-09-19 07:22:00,42.8,41.7,30.19,NNE,29,0.0,1.0,96,0.00,,FEW004,0.00,VWS V14.01,2013-09-19 11:22:00,
2013-09-19 07:27:00,42.9,41.8,30.19,ENE,69,0.0,1.0,96,0.00,,FEW004,0.00,VWS V14.01,2013-09-19 11:27:00,
2013-09-19 07:32:00,43.1,42.0,30.19,East,79,0.0,0.0,96,0.00,,FEW004,0.00,VWS V14.01,2013-09-19 11:32:00,
2013-09-19 07:37:00,43.3,42.2,30.19,East,85,1.0,2.0,96,0.00,,FEW004,0.00,VWS V14.01,2013-09-19 11:37:00,
2013-09-19 07:42:00,43.8,42.7,30.19,East,87,2.0,3.0,96,0.00,,FEW004,0.00,VWS V14.01,2013-09-19 11:42:00,
2013-09-19 07:47:00,44.3,43.0,30.18,East,85,1.0,3.0,95,0.00,,FEW004,0.00,VWS V14.01,2013-09-19 11:47:00,
2013-09-19 07:52:00,44.5,43.2,30.18,East,84,0.0,3.0,95,0.00,,FEW004,0.00,VWS V14.01,2013-09-19 11:52:00,
2013-09-19 07:57:00,44.8,43.5,30.18,East,84,1.0,3.0,95,0.00,,FEW004,0.00,VWS V14.01,2013-09-19 11:57:00,
2013-09-19 08:02:00,44.9,43.6,30.18,ENE,74,0.0,0.0,95,0.00,,,0.00,VWS V14.01,2013-09-19 12:02:00,
2013-09-19 08:07:00,45.2,43.9,30.18,ENE,73,0.0,0.0,95,0.00,,,0.00,VWS V14.01,2013-09-19 12:07:00,
2013-09-19 08:12:00,45.3,44.0,30.18,ENE,74,0.0,0.0,95,0.00,,,0.00,VWS V14.01,2013-09-19 12:12:00,
2013-09-19 08:17:00,45.5,44.2,30.18,East,83,0.0,0.0,95,0.00,,,0.00,VWS V14.01,2013-09-19 12:17:00,
2013-09-19 08:22:00,45.7,44.6,30.18,East,84,0.0,0.0,96,0.00,,,0.00,VWS V14.01,2013-09-19 12:22:00,
2013-09-19 08:27:00,46.1,45.0,30.18,East,83,0.0,0.0,96,0.00,,,0.00,VWS V14.01,2013-09-19 12:27:00,
2013-09-19 08:32:00,46.5,45.4,30.18,ENE,62,0.0,0.0,96,0.00,,,0.00,VWS V14.01,2013-09-19 12:32:00,
2013-09-19 08:37:00,46.9,45.8,30.18,North,358,0.0,0.0,96,0.00,,,0.00,VWS V14.01,2013-09-19 12:37:00,
2013-09-19 08:42:00,47.2,46.1,30.18,WNW,291,3.0,3.0,96,0.00,,,0.00,VWS V14.01,2013-09-19 12:42:00,
2013-09-19 08:47:00,47.0,45.7,30.18,WNW,291,1.0,4.0,95,0.00,,,0.00,VWS V14.01,2013-09-19 12:47:00,
2013-09-19 08:52:00,46.8,45.5,30.18,WNW,302,0.0,4.0,95,0.00,,,0.00,VWS V14.01,2013-09-19 12:52:00,
2013-09-19 08:57:00,46.8,45.7,30.18,WNW,300,0.0,4.0,96,0.00,,,0.00,VWS V14.01,2013-09-19 12:57:00,
2013-09-19 09:02:00,46.8,45.7,30.17,WNW,284,0.0,1.0,96,0.00,,,0.00,VWS V14.01,2013-09-19 13:02:00,
2013-09-19 09:07:00,47.2,46.1,30.18,WNW,288,0.0,1.0,96,0.00,,,0.00,VWS V14.01,2013-09-19 13:07:00,
2013-09-19 09:12:00,47.3,46.2,30.18,West,274,1.0,4.0,96,0.00,,,0.00,VWS V14.01,2013-09-19 13:12:00,
2013-09-19 09:17:00,47.4,46.0,30.18,West,273,2.0,5.0,95,0.00,,,0.00,VWS V14.01,2013-09-19 13:17:00,
2013-09-19 09:22:00,47.6,46.5,30.18,WNW,287,3.0,5.0,96,0.00,,,0.00,VWS V14.01,2013-09-19 13:22:00,
2013-09-19 09:27:00,47.7,46.3,30.18,WNW,298,3.0,5.0,95,0.00,,,0.00,VWS V14.01,2013-09-19 13:27:00,
2013-09-19 09:32:00,48.3,47.2,30.19,South,184,1.0,3.0,96,0.00,,,0.00,VWS V14.01,2013-09-19 13:32:00,
2013-09-19 09:37:00,48.8,47.4,30.19,WSW,248,0.0,4.0,95,0.00,,,0.00,VWS V14.01,2013-09-19 13:37:00,
2013-09-19 09:42:00,49.5,47.6,30.18,WNW,294,3.0,4.0,93,0.00,,,0.00,VWS V14.01,2013-09-19 13:42:00,
2013-09-19 09:47:00,50.1,48.2,30.18,WSW,242,0.0,4.0,93,0.00,,,0.00,VWS V14.01,2013-09-19 13:47:00,
2013-09-19 09:52:00,51.0,48.5,30.18,SSW,197,2.0,4.0,91,0.00,,,0.00,VWS V14.01,2013-09-19 13:52:00,
2013-09-19 09:57:00,51.7,48.9,30.18,SSW,209,2.0,4.0,90,0.00,,,0.00,VWS V14.01,2013-09-19 13:57:00,
2013-09-19 10:02:00,52.3,48.9,30.18,West,279,1.0,2.0,88,0.00,,FEW004,0.00,VWS V14.01,2013-09-19 14:02:00,
2013-09-19 10:07:00,53.2,49.4,30.18,WNW,293,1.0,3.0,87,0.00,,FEW004,0.00,VWS V14.01,2013-09-19 14:07:00,
2013-09-19 10:12:00,54.0,49.3,30.18,West,271,0.0,3.0,84,0.00,,FEW004,0.00,VWS V14.01,2013-09-19 14:12:00,
2013-09-19 10:17:00,54.2,49.5,30.18,SW,224,0.0,3.0,84,0.00,,FEW004,0.00,VWS V14.01,2013-09-19 14:17:00,
2013-09-19 10:22:00,55.0,49.9,30.18,West,269,0.0,3.0,83,0.00,,FEW004,0.00,VWS V14.01,2013-09-19 14:22:00,
2013-09-19 10:27:00,56.0,50.3,30.18,SSW,207,0.0,3.0,81,0.00,,FEW004,0.00,VWS V14.01,2013-09-19 14:27:00,
2013-09-19 10:32:00,57.3,50.8,30.18,SW,224,0.0,1.0,79,0.00,,FEW004,0.00,VWS V14.01,2013-09-19 14:32:00,
2013-09-19 10:37:00,58.0,50.8,30.18,West,281,0.0,1.0,77,0.00,,FEW004,0.00,VWS V14.01,2013-09-19 14:37:00,
2013-09-19 10:42:00,59.6,51.7,30.18,SSW,212,3.0,4.0,75,0.00,,FEW004,0.00,VWS V14.01,2013-09-19 14:42:00,
2013-09-19 10:47:00,59.4,51.1,30.17,ESE,120,0.0,4.0,74,0.00,,FEW004,0.00,VWS V14.01,2013-09-19 14:47:00,
2013-09-19 10:52:00,60.1,51.8,30.17,East,100,0.0,4.0,74,0.00,,FEW004,0.00,VWS V14.01,2013-09-19 14:52:00,
2013-09-19 10:57:00,60.7,52.7,30.17,ESE,108,0.0,4.0,75,0.00,,FEW004,0.00,VWS V14.01,2013-09-19 14:57:00,
2013-09-19 11:02:00,62.0,52.1,30.17,WNW,289,3.0,3.0,70,0.00,,CLR,0.00,VWS V14.01,2013-09-19 15:02:00,
2013-09-19 11:07:00,61.6,51.7,30.17,NNW,328,0.0,4.0,70,0.00,,CLR,0.00,VWS V14.01,2013-09-19 15:07:00,
2013-09-19 11:12:00,62.2,51.9,30.17,West,267,0.0,4.0,69,0.00,,CLR,0.00,VWS V14.01,2013-09-19 15:12:00,
2013-09-19 11:17:00,62.5,51.4,30.17,NE,51,0.0,4.0,67,0.00,,CLR,0.00,VWS V14.01,2013-09-19 15:17:00,
2013-09-19 11:22:00,62.8,52.5,30.17,NW,311,0.0,4.0,69,0.00,,CLR,0.00,VWS V14.01,2013-09-19 15:22:00,
2013-09-19 11:27:00,64.0,52.4,30.17,East,91,0.0,4.0,66,0.00,,CLR,0.00,VWS V14.01,2013-09-19 15:27:00,
2013-09-19 11:32:00,64.6,53.0,30.16,East,84,2.0,2.0,66,0.00,,CLR,0.00,VWS V14.01,2013-09-19 15:32:00,
2013-09-19 11:37:00,64.4,52.0,30.16,SW,223,0.0,3.0,64,0.00,,CLR,0.00,VWS V14.01,2013-09-19 15:37:00,
2013-09-19 11:42:00,65.2,53.6,30.16,SW,227,2.0,3.0,66,0.00,,CLR,0.00,VWS V14.01,2013-09-19 15:42:00,
2013-09-19 11:47:00,65.2,53.2,30.15,West,278,0.0,4.0,65,0.00,,CLR,0.00,VWS V14.01,2013-09-19 15:47:00,
2013-09-19 11:52:00,66.2,53.2,30.15,SW,218,2.0,4.0,63,0.00,,CLR,0.00,VWS V14.01,2013-09-19 15:52:00,
2013-09-19 11:57:00,66.7,53.3,30.15,NE,56,1.0,4.0,62,0.00,,CLR,0.00,VWS V14.01,2013-09-19 15:57:00,
2013-09-19 12:02:00,66.9,52.6,30.15,SW,229,3.0,3.0,60,0.00,,CLR,0.00,VWS V14.01,2013-09-19 16:02:00,
2013-09-19 12:07:00,66.6,52.8,30.14,ENE,74,0.0,4.0,61,0.00,,CLR,0.00,VWS V14.01,2013-09-19 16:07:00,
2013-09-19 12:12:00,67.1,52.8,30.14,East,88,0.0,4.0,60,0.00,,CLR,0.00,VWS V14.01,2013-09-19 16:12:00,
2013-09-19 12:17:00,67.4,52.6,30.14,NE,44,0.0,4.0,59,0.00,,CLR,0.00,VWS V14.01,2013-09-19 16:17:00,
2013-09-19 12:22:00,68.5,53.2,30.14,WNW,290,1.0,4.0,58,0.00,,CLR,0.00,VWS V14.01,2013-09-19 16:22:00,
2013-09-19 12:27:00,68.9,54.0,30.13,SSW,212,3.0,4.0,59,0.00,,CLR,0.00,VWS V14.01,2013-09-19 16:27:00,
2013-09-19 12:32:00,69.4,54.0,30.13,SSW,204,2.0,4.0,58,0.00,,CLR,0.00,VWS V14.01,2013-09-19 16:32:00,
2013-09-19 12:37:00,69.5,53.6,30.13,SSW,210,1.0,4.0,57,0.00,,CLR,0.00,VWS V14.01,2013-09-19 16:37:00,
2013-09-19 12:42:00,69.5,53.1,30.13,SE,127,0.0,4.0,56,0.00,,CLR,0.00,VWS V14.01,2013-09-19 16:42:00,
2013-09-19 12:47:00,70.2,53.8,30.13,WSW,237,1.0,4.0,56,0.00,,CLR,0.00,VWS V14.01,2013-09-19 16:47:00,
2013-09-19 12:52:00,71.1,54.6,30.13,WNW,287,2.0,5.0,56,0.00,,CLR,0.00,VWS V14.01,2013-09-19 16:52:00,
2013-09-19 12:57:00,70.5,53.1,30.12,SW,221,2.0,5.0,54,0.00,,CLR,0.00,VWS V14.01,2013-09-19 16:57:00,
2013-09-19 13:02:00,69.9,54.0,30.12,East,101,2.0,4.0,57,0.00,,CLR,0.00,VWS V14.01,2013-09-19 17:02:00,
2013-09-19 13:06:00,70.1,54.2,30.11,NE,47,2.0,4.0,57,0.00,,CLR,0.00,VWS V14.01,2013-09-19 17:06:00,
2013-09-19 13:11:00,71.2,54.7,30.11,North,354,2.0,4.0,56,0.00,,CLR,0.00,VWS V14.01,2013-09-19 17:11:00,
2013-09-19 13:16:00,71.9,54.4,30.11,WNW,290,3.0,4.0,54,0.00,,CLR,0.00,VWS V14.01,2013-09-19 17:16:00,
2013-09-19 13:21:00,72.2,55.7,30.11,ENE,76,1.0,4.0,56,0.00,,CLR,0.00,VWS V14.01,2013-09-19 17:21:00,
2013-09-19 13:26:00,72.9,55.3,30.10,NNE,33,2.0,4.0,54,0.00,,CLR,0.00,VWS V14.01,2013-09-19 17:26:00,
2013-09-19 13:31:00,73.4,55.2,30.10,SW,235,2.0,3.0,53,0.00,,CLR,0.00,VWS V14.01,2013-09-19 17:31:00,
2013-09-19 13:36:00,74.2,56.0,30.09,ESE,120,0.0,3.0,53,0.00,,CLR,0.00,VWS V14.01,2013-09-19 17:36:00,
2013-09-19 13:41:00,74.5,55.2,30.09,East,90,1.0,3.0,51,0.00,,CLR,0.00,VWS V14.01,2013-09-19 17:41:00,
2013-09-19 13:46:00,74.7,56.5,30.09,SW,222,2.0,3.0,53,0.00,,CLR,0.00,VWS V14.01,2013-09-19 17:46:00,
2013-09-19 13:51:00,74.9,55.6,30.08,SE,130,2.0,5.0,51,0.00,,CLR,0.00,VWS V14.01,2013-09-19 17:51:00,
2013-09-19 13:56:00,75.2,56.9,30.08,East,96,0.0,5.0,53,0.00,,CLR,0.00,VWS V14.01,2013-09-19 17:56:00,
2013-09-19 14:01:00,75.8,56.9,30.08,East,100,1.0,2.0,52,0.00,,CLR,0.00,VWS V14.01,2013-09-19 18:01:00,
2013-09-19 14:06:00,75.6,56.8,30.08,ENE,69,2.0,4.0,52,0.00,,CLR,0.00,VWS V14.01,2013-09-19 18:06:00,
2013-09-19 14:11:00,75.1,56.8,30.07,WSW,250,1.0,4.0,53,0.00,,CLR,0.00,VWS V14.01,2013-09-19 18:11:00,
2013-09-19 14:16:00,75.4,56.6,30.07,West,259,0.0,4.0,52,0.00,,CLR,0.00,VWS V14.01,2013-09-19 18:16:00,
2013-09-19 14:21:00,76.4,57.5,30.07,SSE,165,2.0,4.0,52,0.00,,CLR,0.00,VWS V14.01,2013-09-19 18:21:00,
2013-09-19 14:26:00,76.9,58.0,30.06,NW,307,0.0,4.0,52,0.00,,CLR,0.00,VWS V14.01,2013-09-19 18:26:00,
2013-09-19 14:31:00,78.3,58.2,30.06,NNE,23,0.0,0.0,50,0.00,,CLR,0.00,VWS V14.01,2013-09-19 18:31:00,
2013-09-19 14:36:00,78.3,57.6,30.06,WSW,240,1.0,4.0,49,0.00,,CLR,0.00,VWS V14.01,2013-09-19 18:36:00,
2013-09-19 14:41:00,77.7,57.0,30.07,SW,224,2.0,4.0,49,0.00,,CLR,0.00,VWS V14.01,2013-09-19 18:41:00,
2013-09-19 14:46:00,77.6,57.5,30.06,ESE,116,2.0,4.0,50,0.00,,CLR,0.00,VWS V14.01,2013-09-19 18:46:00,
2013-09-19 14:51:00,77.0,56.4,30.06,South,191,1.0,4.0,49,0.00,,CLR,0.00,VWS V14.01,2013-09-19 18:51:00,
2013-09-19 14:56:00,76.7,57.2,30.06,ESE,112,3.0,5.0,51,0.00,,CLR,0.00,VWS V14.01,2013-09-19 18:56:00,
2013-09-19 15:01:00,76.8,57.3,30.06,SW,225,4.0,5.0,51,0.00,,CLR,0.00,VWS V14.01,2013-09-19 19:01:00,
2013-09-19 15:06:00,77.2,58.2,30.05,ENE,75,2.0,5.0,52,0.00,,CLR,0.00,VWS V14.01,2013-09-19 19:06:00,
2013-09-19 15:11:00,77.4,57.3,30.05,East,88,2.0,6.0,50,0.00,,CLR,0.00,VWS V14.01,2013-09-19 19:11:00,
2013-09-19 15:16:00,77.6,57.5,30.05,SSW,213,1.0,6.0,50,0.00,,CLR,0.00,VWS V14.01,2013-09-19 19:16:00,
2013-09-19 15:21:00,77.6,57.5,30.05,East,79,2.0,6.0,50,0.00,,CLR,0.00,VWS V14.01,2013-09-19 19:21:00,
2013-09-19 15:26:00,77.7,58.7,30.05,East,81,1.0,6.0,52,0.00,,CLR,0.00,VWS V14.01,2013-09-19 19:26:00,
2013-09-19 15:31:00,77.7,57.0,30.05,East,99,2.0,3.0,49,0.00,,CLR,0.00,VWS V14.01,2013-09-19 19:31:00,
2013-09-19 15:36:00,77.9,57.8,30.04,SW,229,2.0,3.0,50,0.00,,CLR,0.00,VWS V14.01,2013-09-19 19:36:00,
2013-09-19 15:41:00,77.8,57.7,30.04,SW,228,2.0,5.0,50,0.00,,CLR,0.00,VWS V14.01,2013-09-19 19:41:00,
2013-09-19 15:46:00,78.2,58.1,30.04,SSW,202,0.0,5.0,50,0.00,,CLR,0.00,VWS V14.01,2013-09-19 19:46:00,
2013-09-19 15:51:00,77.7,57.0,30.04,SW,228,5.0,6.0,49,0.00,,CLR,0.00,VWS V14.01,2013-09-19 19:51:00,
2013-09-19 15:56:00,77.5,57.4,30.04,West,264,2.0,6.0,50,0.00,,CLR,0.00,VWS V14.01,2013-09-19 19:56:00,
2013-09-19 16:01:00,77.8,58.2,30.04,SW,228,0.0,2.0,51,0.00,,CLR,0.00,VWS V14.01,2013-09-19 20:01:00,
2013-09-19 16:06:00,78.3,57.6,30.04,ENE,64,1.0,3.0,49,0.00,,CLR,0.00,VWS V14.01,2013-09-19 20:06:00,
2013-09-19 16:11:00,78.3,57.6,30.04,SW,232,3.0,4.0,49,0.00,,CLR,0.00,VWS V14.01,2013-09-19 20:11:00,
2013-09-19 16:16:00,78.3,57.6,30.03,SSW,212,2.0,4.0,49,0.00,,CLR,0.00,VWS V14.01,2013-09-19 20:16:00,
2013-09-19 16:21:00,78.3,58.2,30.03,ESE,104,1.0,4.0,50,0.00,,CLR,0.00,VWS V14.01,2013-09-19 20:21:00,
2013-09-19 16:26:00,78.5,58.3,30.03,West,267,1.0,4.0,50,0.00,,CLR,0.00,VWS V14.01,2013-09-19 20:26:00,
2013-09-19 16:31:00,78.5,58.3,30.03,SSE,166,1.0,3.0,50,0.00,,CLR,0.00,VWS V14.01,2013-09-19 20:31:00,
2013-09-19 16:36:00,78.4,57.7,30.03,SSW,197,2.0,6.0,49,0.00,,CLR,0.00,VWS V14.01,2013-09-19 20:36:00,
2013-09-19 16:41:00,78.4,57.7,30.03,SW,218,1.0,6.0,49,0.00,,CLR,0.00,VWS V14.01,2013-09-19 20:41:00,
2013-09-19 16:46:00,78.1,58.0,30.03,SW,226,3.0,6.0,50,0.00,,CLR,0.00,VWS V14.01,2013-09-19 20:46:00,
2013-09-19 16:51:00,77.9,57.8,30.03,SSW,208,5.0,7.0,50,0.00,,CLR,0.00,VWS V14.01,2013-09-19 20:51:00,
2013-09-19 16:56:00,77.9,57.8,30.03,SW,214,0.0,7.0,50,0.00,,CLR,0.00,VWS V14.01,2013-09-19 20:56:00,
2013-09-19 17:01:00,78.2,58.1,30.04,ESE,117,2.0,5.0,50,0.00,,CLR,0.00,VWS V14.01,2013-09-19 21:01:00,
2013-09-19 17:06:00,78.1,58.0,30.04,SW,222,2.0,5.0,50,0.00,,CLR,0.00,VWS V14.01,2013-09-19 21:06:00,
2013-09-19 17:11:00,77.8,57.7,30.04,SSW,210,1.0,5.0,50,0.00,,CLR,0.00,VWS V14.01,2013-09-19 21:11:00,
2013-09-19 17:16:00,77.7,58.7,30.03,SW,226,2.0,5.0,52,0.00,,CLR,0.00,VWS V14.01,2013-09-19 21:16:00,
2013-09-19 17:21:00,77.8,58.2,30.03,SW,232,1.0,5.0,51,0.00,,CLR,0.00,VWS V14.01,2013-09-19 21:21:00,
2013-09-19 17:26:00,77.7,58.7,30.03,SW,215,0.0,5.0,52,0.00,,CLR,0.00,VWS V14.01,2013-09-19 21:26:00,
2013-09-19 17:31:00,77.9,58.3,30.03,WSW,248,0.0,2.0,51,0.00,,CLR,0.00,VWS V14.01,2013-09-19 21:31:00,
2013-09-19 17:36:00,77.8,58.8,30.03,South,183,0.0,6.0,52,0.00,,CLR,0.00,VWS V14.01,2013-09-19 21:36:00,
2013-09-19 17:41:00,77.7,59.2,30.03,East,79,1.0,6.0,53,0.00,,CLR,0.00,VWS V14.01,2013-09-19 21:41:00,
2013-09-19 17:46:00,77.6,58.6,30.03,South,176,2.0,6.0,52,0.00,,CLR,0.00,VWS V14.01,2013-09-19 21:46:00,
2013-09-19 17:51:00,77.1,58.7,30.03,East,94,1.0,6.0,53,0.00,,CLR,0.00,VWS V14.01,2013-09-19 21:51:00,
2013-09-19 17:56:00,76.8,58.4,30.03,SW,225,2.0,6.0,53,0.00,,CLR,0.00,VWS V14.01,2013-09-19 21:56:00,
2013-09-19 18:01:00,76.8,58.4,30.03,WSW,242,0.0,4.0,53,0.00,,CLR,0.00,VWS V14.01,2013-09-19 22:01:00,
2013-09-19 18:06:00,76.6,58.7,30.03,South,191,0.0,4.0,54,0.00,,CLR,0.00,VWS V14.01,2013-09-19 22:06:00,
2013-09-19 18:11:00,76.6,58.7,30.03,ESE,120,2.0,4.0,54,0.00,,CLR,0.00,VWS V14.01,2013-09-19 22:11:00,
2013-09-19 18:16:00,76.4,59.1,30.03,ESE,115,0.0,4.0,55,0.00,,CLR,0.00,VWS V14.01,2013-09-19 22:16:00,
2013-09-19 18:21:00,76.6,59.2,30.03,SE,139,0.0,4.0,55,0.00,,CLR,0.00,VWS V14.01,2013-09-19 22:21:00,
2013-09-19 18:26:00,76.4,59.1,30.04,SE,141,0.0,4.0,55,0.00,,CLR,0.00,VWS V14.01,2013-09-19 22:26:00,
2013-09-19 18:31:00,76.1,58.8,30.04,East,98,0.0,1.0,55,0.00,,CLR,0.00,VWS V14.01,2013-09-19 22:31:00,
2013-09-19 18:36:00,75.3,58.5,30.04,WSW,246,0.0,1.0,56,0.00,,CLR,0.00,VWS V14.01,2013-09-19 22:36:00,
2013-09-19 18:41:00,74.5,58.3,30.04,South,172,0.0,3.0,57,0.00,,CLR,0.00,VWS V14.01,2013-09-19 22:41:00,
2013-09-19 18:46:00,73.9,58.7,30.04,ESE,105,0.0,3.0,59,0.00,,CLR,0.00,VWS V14.01,2013-09-19 22:46:00,
2013-09-19 18:51:00,73.5,58.3,30.04,East,86,1.0,3.0,59,0.00,,CLR,0.00,VWS V14.01,2013-09-19 22:51:00,
2013-09-19 18:56:00,73.1,58.4,30.04,East,87,1.0,3.0,60,0.00,,CLR,0.00,VWS V14.01,2013-09-19 22:56:00,
2013-09-19 19:01:00,72.7,58.5,30.04,SE,134,1.0,1.0,61,0.00,,CLR,0.00,VWS V14.01,2013-09-19 23:01:00,
2013-09-19 19:06:00,72.4,58.2,30.04,ESE,113,0.0,2.0,61,0.00,,CLR,0.00,VWS V14.01,2013-09-19 23:06:00,
2013-09-19 19:11:00,72.1,58.4,30.04,ESE,115,0.0,2.0,62,0.00,,CLR,0.00,VWS V14.01,2013-09-19 23:11:00,
2013-09-19 19:16:00,71.8,58.1,30.04,SW,228,0.0,3.0,62,0.00,,CLR,0.00,VWS V14.01,2013-09-19 23:16:00,
2013-09-19 19:21:00,71.6,58.3,30.04,SW,231,1.0,3.0,63,0.00,,CLR,0.00,VWS V14.01,2013-09-19 23:21:00,
2013-09-19 19:26:00,71.5,58.3,30.04,NNE,18,0.0,3.0,63,0.00,,CLR,0.00,VWS V14.01,2013-09-19 23:26:00,
2013-09-19 19:31:00,71.3,58.5,30.05,North,3,2.0,2.0,64,0.00,,CLR,0.00,VWS V14.01,2013-09-19 23:31:00,
2013-09-19 19:36:00,71.2,58.4,30.05,West,264,1.0,2.0,64,0.00,,CLR,0.00,VWS V14.01,2013-09-19 23:36:00,
2013-09-19 19:41:00,71.0,58.2,30.05,NNE,19,0.0,2.0,64,0.00,,CLR,0.00,VWS V14.01,2013-09-19 23:41:00,
2013-09-19 19:46:00,70.8,58.0,30.05,NNE,19,0.0,2.0,64,0.00,,CLR,0.00,VWS V14.01,2013-09-19 23:46:00,
2013-09-19 19:51:00,70.6,58.3,30.05,NNE,24,0.0,2.0,65,0.00,,CLR,0.00,VWS V14.01,2013-09-19 23:51:00,
2013-09-19 19:56:00,70.1,58.2,30.05,East,84,0.0,2.0,66,0.00,,CLR,0.00,VWS V14.01,2013-09-19 23:56:00,
2013-09-19 20:01:00,69.7,58.7,30.05,East,97,0.0,2.0,68,0.00,,CLR,0.00,VWS V14.01,2013-09-20 00:01:00,
2013-09-19 20:06:00,69.2,58.6,30.04,East,84,0.0,2.0,69,0.00,,CLR,0.00,VWS V14.01,2013-09-20 00:06:00,
2013-09-19 20:11:00,68.7,58.5,30.05,ESE,104,0.0,2.0,70,0.00,,CLR,0.00,VWS V14.01,2013-09-20 00:11:00,
2013-09-19 20:16:00,68.5,58.7,30.05,ESE,110,0.0,2.0,71,0.00,,CLR,0.00,VWS V14.01,2013-09-20 00:16:00,
2013-09-19 20:21:00,68.1,58.7,30.05,ESE,105,0.0,2.0,72,0.00,,CLR,0.00,VWS V14.01,2013-09-20 00:21:00,
2013-09-19 20:26:00,67.7,58.7,30.05,ESE,104,0.0,2.0,73,0.00,,CLR,0.00,VWS V14.01,2013-09-20 00:26:00,
2013-09-19 20:31:00,67.2,58.6,30.05,East,92,0.0,0.0,74,0.00,,CLR,0.00,VWS V14.01,2013-09-20 00:31:00,
2013-09-19 20:36:00,66.7,58.5,30.05,East,94,0.0,0.0,75,0.00,,CLR,0.00,VWS V14.01,2013-09-20 00:36:00,
2013-09-19 20:41:00,66.4,58.2,30.05,East,87,0.0,3.0,75,0.00,,CLR,0.00,VWS V14.01,2013-09-20 00:41:00,
2013-09-19 20:46:00,66.0,58.2,30.05,East,87,0.0,3.0,76,0.00,,CLR,0.00,VWS V14.01,2013-09-20 00:46:00,
2013-09-19 20:51:00,65.5,58.1,30.05,East,93,0.0,3.0,77,0.00,,CLR,0.00,VWS V14.01,2013-09-20 00:51:00,
2013-09-19 20:56:00,65.1,58.1,30.05,ENE,58,0.0,3.0,78,0.00,,CLR,0.00,VWS V14.01,2013-09-20 00:56:00,
2013-09-19 21:01:00,64.7,58.0,30.05,ENE,58,1.0,3.0,79,0.00,,CLR,0.00,VWS V14.01,2013-09-20 01:01:00,
2013-09-19 21:06:00,64.3,58.0,30.05,NE,43,2.0,4.0,80,0.00,,CLR,0.00,VWS V14.01,2013-09-20 01:06:00,
2013-09-19 21:11:00,64.0,57.7,30.05,NE,47,1.0,4.0,80,0.00,,CLR,0.00,VWS V14.01,2013-09-20 01:11:00,
2013-09-19 21:16:00,63.7,57.8,30.05,ENE,63,0.0,4.0,81,0.00,,CLR,0.00,VWS V14.01,2013-09-20 01:16:00,
2013-09-19 21:21:00,63.5,57.6,30.05,NE,36,0.0,4.0,81,0.00,,CLR,0.00,VWS V14.01,2013-09-20 01:21:00,
2013-09-19 21:26:00,63.3,57.7,30.05,NE,42,0.0,4.0,82,0.00,,CLR,0.00,VWS V14.01,2013-09-20 01:26:00,
2013-09-19 21:31:00,63.0,57.4,30.05,NE,44,0.0,2.0,82,0.00,,CLR,0.00,VWS V14.01,2013-09-20 01:31:00,
2013-09-19 21:36:00,62.8,57.6,30.05,ENE,58,2.0,4.0,83,0.00,,CLR,0.00,VWS V14.01,2013-09-20 01:36:00,
2013-09-19 21:41:00,62.5,57.6,30.05,NE,44,4.0,4.0,84,0.00,,CLR,0.00,VWS V14.01,2013-09-20 01:41:00,
2013-09-19 21:46:00,62.3,57.4,30.05,ENE,62,2.0,5.0,84,0.00,,CLR,0.00,VWS V14.01,2013-09-20 01:46:00,
2013-09-19 21:51:00,62.1,57.2,30.05,NE,39,2.0,5.0,84,0.00,,CLR,0.00,VWS V14.01,2013-09-20 01:51:00,
2013-09-19 21:56:00,61.8,57.2,30.05,East,89,1.0,5.0,85,0.00,,CLR,0.00,VWS V14.01,2013-09-20 01:56:00,
2013-09-19 22:01:00,61.6,57.0,30.05,NE,50,0.0,2.0,85,0.00,,CLR,0.00,VWS V14.01,2013-09-20 02:01:00,
2013-09-19 22:06:00,61.4,56.9,30.05,NE,50,1.0,2.0,85,0.00,,CLR,0.00,VWS V14.01,2013-09-20 02:06:00,
2013-09-19 22:11:00,61.2,57.0,30.05,NNE,33,2.0,4.0,86,0.00,,CLR,0.00,VWS V14.01,2013-09-20 02:11:00,
2013-09-19 22:16:00,60.9,56.7,30.05,NE,39,0.0,4.0,86,0.00,,CLR,0.00,VWS V14.01,2013-09-20 02:16:00,
2013-09-19 22:21:00,60.6,56.7,30.05,NE,42,1.0,4.0,87,0.00,,CLR,0.00,VWS V14.01,2013-09-20 02:21:00,
2013-09-19 22:26:00,60.4,56.5,30.05,NE,39,2.0,4.0,87,0.00,,CLR,0.00,VWS V14.01,2013-09-20 02:26:00,
2013-09-19 22:31:00,60.2,56.3,30.05,NE,36,0.0,0.0,87,0.00,,CLR,0.00,VWS V14.01,2013-09-20 02:31:00,
2013-09-19 22:36:00,60.0,56.4,30.05,ESE,120,1.0,2.0,88,0.00,,CLR,0.00,VWS V14.01,2013-09-20 02:36:00,
2013-09-19 22:41:00,59.8,56.2,30.05,NE,36,0.0,3.0,88,0.00,,CLR,0.00,VWS V14.01,2013-09-20 02:41:00,
2013-09-19 22:46:00,59.6,56.4,30.05,NE,36,0.0,3.0,89,0.00,,CLR,0.00,VWS V14.01,2013-09-20 02:46:00,
2013-09-19 22:51:00,59.4,56.2,30.05,NE,42,3.0,3.0,89,0.00,,CLR,0.00,VWS V14.01,2013-09-20 02:51:00,
2013-09-19 22:56:00,59.3,56.1,30.05,ENE,73,1.0,3.0,89,0.00,,CLR,0.00,VWS V14.01,2013-09-20 02:56:00,
2013-09-19 23:01:00,59.2,56.3,30.05,NE,39,0.0,3.0,90,0.00,,CLR,0.00,VWS V14.01,2013-09-20 03:01:00,
2013-09-19 23:06:00,59.2,56.3,30.05,ESE,105,1.0,3.0,90,0.00,,CLR,0.00,VWS V14.01,2013-09-20 03:06:00,
2013-09-19 23:11:00,58.9,56.0,30.05,East,101,1.0,3.0,90,0.00,,CLR,0.00,VWS V14.01,2013-09-20 03:11:00,
2013-09-19 23:16:00,58.7,55.8,30.05,East,86,0.0,3.0,90,0.00,,CLR,0.00,VWS V14.01,2013-09-20 03:16:00,
2013-09-19 23:21:00,58.6,56.0,30.05,East,101,1.0,3.0,91,0.00,,CLR,0.00,VWS V14.01,2013-09-20 03:21:00,
2013-09-19 23:26:00,58.6,56.0,30.05,ESE,105,2.0,3.0,91,0.00,,CLR,0.00,VWS V14.01,2013-09-20 03:26:00,
2013-09-19 23:31:00,58.6,56.0,30.05,East,88,1.0,1.0,91,0.00,,CLR,0.00,VWS V14.01,2013-09-20 03:31:00,
2013-09-19 23:36:00,58.4,55.8,30.05,East,87,0.0,1.0,91,0.00,,CLR,0.00,VWS V14.01,2013-09-20 03:36:00,
2013-09-19 23:41:00,58.1,55.5,30.05,ESE,105,0.0,1.0,91,0.00,,CLR,0.00,VWS V14.01,2013-09-20 03:41:00,
2013-09-19 23:46:00,57.9,55.3,30.05,ESE,105,0.0,1.0,91,0.00,,CLR,0.00,VWS V14.01,2013-09-20 03:46:00,
2013-09-19 23:51:00,57.6,55.0,30.05,ESE,104,0.0,1.0,91,0.00,,CLR,0.00,VWS V14.01,2013-09-20 03:51:00,
2013-09-19 23:56:00,57.4,54.8,30.04,NE,41,0.0,2.0,91,0.00,,CLR,0.00,VWS V14.01,2013-09-20 03:56:00,